When you browse on this site, cookies collect data to enhance your experience and personalize the content and advertising you see.
Visit our Privacy Policy to learn more. By continuing to use the site, you agree to this use of cookies and data.
  • In Spain
  • List of Countries
  • For 7 days
  • Water Temperature
  • Weather Map
  • Weather Widgets
  • user-avatar
    Login

    Hourly Weather Gor-Apole

    Today, 21 September, Saturday

    Time Temperature Precipitation Wind Pressure Humidity
    00:00 +1°C° 0 mm 2 mps 746 mmHg 95%
    01:00 +1°C° 0 mm 2 mps 746 mmHg 95%
    02:00 -1°C° 0 mm 2 mps 747 mmHg 95%
    03:00 -1°C° 0 mm 2 mps 747 mmHg 94%
    04:00 -1°C° 0 mm 2 mps 746 mmHg 94%
    05:00 -1°C° 0 mm 2 mps 746 mmHg 94%
    06:00 +1°C° 0 mm 2 mps 746 mmHg 88%
    07:00 +2°C° 0 mm 2 mps 746 mmHg 82%
    08:00 +4°C° 0 mm 2 mps 746 mmHg 76%
    09:00 +4°C° 0 mm 3 mps 746 mmHg 74%
    10:00 +7°C° 0 mm 3 mps 745 mmHg 71%
    11:00 +7°C° 0 mm 4 mps 745 mmHg 68%
    12:00 +7°C° 0.1 mm 4 mps 745 mmHg 69%
    13:00 +7°C° 0.1 mm 5 mps 744 mmHg 70%
    14:00 +7°C° 0.1 mm 6 mps 743 mmHg 72%
    15:00 +6°C° 0.8 mm 5 mps 743 mmHg 80%
    16:00 +5°C° 0.8 mm 5 mps 742 mmHg 87%
    17:00 +5°C° 0.8 mm 5 mps 741 mmHg 95%
    18:00 +5°C° 0.5 mm 4 mps 740 mmHg 96%
    19:00 +5°C° 0.5 mm 4 mps 739 mmHg 97%
    20:00 +7°C° 0.5 mm 3 mps 739 mmHg 98%
    21:00 +7°C° 0.4 mm 4 mps 738 mmHg 97%
    22:00 +8°C° 0.4 mm 4 mps 738 mmHg 97%
    23:00 +8°C° 0.4 mm 4 mps 737 mmHg 97%

    Tomorrow, 22 September, Sunday

    Time Temperature Precipitation Wind Pressure Humidity
    00:00 +8°C° 0.6 mm 4 mps 737 mmHg 96%
    01:00 +10°C° 0.6 mm 4 mps 737 mmHg 96%
    02:00 +10°C° 0.6 mm 4 mps 737 mmHg 95%
    03:00 +8°C° 0.2 mm 4 mps 737 mmHg 95%
    04:00 +8°C° 0.2 mm 4 mps 737 mmHg 95%
    05:00 +8°C° 0.2 mm 4 mps 737 mmHg 94%
    06:00 +8°C° 0.3 mm 4 mps 737 mmHg 94%
    07:00 +8°C° 0.3 mm 4 mps 737 mmHg 94%
    08:00 +8°C° 0.3 mm 5 mps 737 mmHg 93%
    09:00 +8°C° 0.2 mm 6 mps 737 mmHg 87%
    10:00 +9°C° 0.2 mm 7 mps 738 mmHg 80%
    11:00 +9°C° 0.2 mm 8 mps 738 mmHg 74%
    12:00 +9°C° 0.1 mm 7 mps 738 mmHg 69%
    13:00 +9°C° 0.1 mm 7 mps 739 mmHg 65%
    14:00 +8°C° 0.1 mm 7 mps 739 mmHg 60%
    15:00 +8°C° 0 mm 6 mps 740 mmHg 63%
    16:00 +7°C° 0 mm 5 mps 741 mmHg 65%
    17:00 +6°C° 0 mm 4 mps 741 mmHg 67%
    18:00 +5°C° 0 mm 4 mps 742 mmHg 71%
    19:00 +4°C° 0 mm 4 mps 743 mmHg 75%
    20:00 +3°C° 0 mm 4 mps 744 mmHg 79%
    21:00 +2°C° 0 mm 3 mps 744 mmHg 82%
    22:00 +1°C° 0 mm 3 mps 744 mmHg 85%
    23:00 +1°C° 0 mm 3 mps 745 mmHg 87%

    Day after tomorrow, 23 September, Monday

    Time Temperature Precipitation Wind Pressure Humidity
    00:00 +1°C° 0 mm 3 mps 745 mmHg 90%
    01:00 0°C° 0 mm 3 mps 746 mmHg 92%
    02:00 0°C° 0 mm 3 mps 746 mmHg 94%
    03:00 -1°C° 0 mm 3 mps 747 mmHg 95%
    04:00 -1°C° 0 mm 2 mps 747 mmHg 95%
    05:00 -2°C° 0 mm 2 mps 747 mmHg 96%
    06:00 +1°C° 0 mm 2 mps 748 mmHg 91%
    07:00 +1°C° 0 mm 3 mps 748 mmHg 85%
    08:00 +2°C° 0 mm 3 mps 748 mmHg 80%
    09:00 +3°C° 0 mm 3 mps 748 mmHg 73%
    10:00 +5°C° 0 mm 3 mps 748 mmHg 65%
    11:00 +7°C° 0 mm 3 mps 749 mmHg 58%
    12:00 +8°C° 0 mm 3 mps 748 mmHg 56%
    13:00 +8°C° 0 mm 3 mps 748 mmHg 55%
    14:00 +8°C° 0 mm 3 mps 748 mmHg 53%
    15:00 +8°C° 0 mm 3 mps 748 mmHg 58%
    16:00 +7°C° 0 mm 2 mps 748 mmHg 63%
    17:00 +6°C° 0 mm 2 mps 748 mmHg 67%
    18:00 +5°C° 0 mm 2 mps 748 mmHg 72%
    19:00 +5°C° 0 mm 1 mps 748 mmHg 77%
    20:00 +3°C° 0 mm 1 mps 748 mmHg 82%
    21:00 +3°C° 0 mm 1 mps 748 mmHg 84%
    22:00 +3°C° 0 mm 1 mps 748 mmHg 87%
    23:00 +2°C° 0 mm 1 mps 748 mmHg 89%

    24 September, Tuesday

    Time Temperature Precipitation Wind Pressure Humidity
    00:00 +2°C° 0 mm 1 mps 748 mmHg 91%
    01:00 +2°C° 0 mm 1 mps 748 mmHg 92%
    02:00 +1°C° 0 mm 1 mps 748 mmHg 93%
    03:00 +1°C° 0 mm 1 mps 748 mmHg 93%
    04:00 +1°C° 0 mm 1 mps 748 mmHg 93%
    05:00 +1°C° 0 mm 1 mps 748 mmHg 93%
    06:00 +2°C° 0 mm 1 mps 748 mmHg 88%
    07:00 +3°C° 0 mm 1 mps 748 mmHg 82%
    08:00 +4°C° 0 mm 0 mps 748 mmHg 76%
    09:00 +6°C° 0 mm 1 mps 748 mmHg 70%
    10:00 +7°C° 0 mm 1 mps 748 mmHg 64%
    11:00 +8°C° 0 mm 2 mps 748 mmHg 58%
    12:00 +9°C° 0 mm 1 mps 748 mmHg 57%
    13:00 +9°C° 0 mm 1 mps 747 mmHg 57%
    14:00 +9°C° 0 mm 1 mps 747 mmHg 56%
    15:00 +8°C° 0 mm 1 mps 747 mmHg 61%
    16:00 +8°C° 0 mm 1 mps 747 mmHg 65%
    17:00 +7°C° 0 mm 1 mps 747 mmHg 69%
    18:00 +7°C° 0 mm 1 mps 747 mmHg 70%
    19:00 +6°C° 0 mm 1 mps 747 mmHg 71%
    20:00 +4°C° 0 mm 0 mps 746 mmHg 72%
    21:00 +4°C° 0 mm 0 mps 746 mmHg 75%
    22:00 +3°C° 0 mm 0 mps 747 mmHg 77%
    23:00 +2°C° 0 mm 0 mps 747 mmHg 79%

    25 September, Wednesday

    Time Temperature Precipitation Wind Pressure Humidity
    00:00 +2°C° 0 mm 0 mps 747 mmHg 81%
    01:00 +1°C° 0 mm 0 mps 747 mmHg 82%
    02:00 +2°C° 0 mm 1 mps 746 mmHg 84%
    03:00 +1°C° 0 mm 1 mps 746 mmHg 85%
    04:00 +1°C° 0 mm 1 mps 746 mmHg 86%
    05:00 +1°C° 0 mm 1 mps 746 mmHg 88%
    06:00 +2°C° 0 mm 1 mps 746 mmHg 82%
    07:00 +4°C° 0 mm 1 mps 746 mmHg 77%
    08:00 +5°C° 0 mm 1 mps 747 mmHg 71%
    09:00 +7°C° 0 mm 1 mps 747 mmHg 65%
    10:00 +8°C° 0 mm 1 mps 747 mmHg 59%
    11:00 +10°C° 0 mm 1 mps 747 mmHg 53%
    12:00 +10°C° 0 mm 1 mps 747 mmHg 52%
    13:00 +10°C° 0 mm 1 mps 746 mmHg 52%
    14:00 +10°C° 0 mm 1 mps 746 mmHg 52%
    15:00 +9°C° 0 mm 1 mps 746 mmHg 57%
    16:00 +8°C° 0 mm 1 mps 746 mmHg 62%
    17:00 +8°C° 0 mm 1 mps 746 mmHg 67%
    18:00 +6°C° 0 mm 1 mps 746 mmHg 70%
    19:00 +5°C° 0 mm 1 mps 746 mmHg 72%
    20:00 +3°C° 0 mm 2 mps 746 mmHg 75%
    21:00 +3°C° 0 mm 2 mps 746 mmHg 76%
    22:00 +3°C° 0 mm 2 mps 746 mmHg 77%
    23:00 +3°C° 0 mm 2 mps 746 mmHg 77%

    26 September, Thursday

    Time Temperature Precipitation Wind Pressure Humidity
    00:00 +2°C° 0 mm 2 mps 746 mmHg 78%
    01:00 +2°C° 0 mm 2 mps 746 mmHg 79%
    02:00 +2°C° 0 mm 2 mps 746 mmHg 80%
    03:00 +1°C° 0 mm 3 mps 745 mmHg 79%
    04:00 +1°C° 0 mm 3 mps 745 mmHg 79%
    05:00 +1°C° 0 mm 3 mps 745 mmHg 78%
    06:00 +2°C° 0 mm 3 mps 745 mmHg 76%
    07:00 +3°C° 0 mm 4 mps 745 mmHg 73%
    08:00 +4°C° 0 mm 4 mps 745 mmHg 71%
    09:00 +5°C° 0 mm 4 mps 745 mmHg 68%
    10:00 +6°C° 0 mm 5 mps 745 mmHg 64%
    11:00 +7°C° 0 mm 5 mps 745 mmHg 60%
    12:00 +7°C° 0 mm 5 mps 744 mmHg 62%
    13:00 +7°C° 0 mm 5 mps 744 mmHg 64%
    14:00 +7°C° 0 mm 5 mps 744 mmHg 65%
    15:00 +7°C° 0.1 mm 5 mps 743 mmHg 70%
    16:00 +6°C° 0.1 mm 4 mps 743 mmHg 75%
    17:00 +5°C° 0.1 mm 4 mps 743 mmHg 80%
    18:00 +5°C° 0 mm 4 mps 743 mmHg 80%
    19:00 +5°C° 0 mm 5 mps 743 mmHg 81%
    20:00 +3°C° 0 mm 5 mps 743 mmHg 81%
    21:00 +3°C° 0 mm 5 mps 743 mmHg 81%
    22:00 +3°C° 0 mm 5 mps 743 mmHg 81%
    23:00 +3°C° 0 mm 5 mps 743 mmHg 81%
    Show more